Location: Saint-Palais-sur-Mer
(45.6429°N, 1.0859°W)
Time: 09:27:06
(UTC+01:00)

Transit 2A Rocket - Visible Passes

Search period start: 15 February 2026 00:00
Search period end: 25 February 2026 00:00
Orbit: 582 x 901 km, 66.7° (Epoch: 13 February)

Date Brightness Start Highest point End Pass type
(mag) Time Alt. Az. Time Alt. Az. Time Alt. Az.
15 Feb 7.6 20:24:47 10° WNW 20:28:07 15° NNW 20:31:24 10° N visible
16 Feb 7.5 19:37:30 10° W 19:41:52 20° NW 19:46:09 10° NNE visible
17 Feb 7.8 20:38:53 10° NNW 20:40:13 11° NNW 20:41:33 10° N visible
18 Feb 7.6 19:50:52 10° NW 19:53:48 14° NNW 19:56:42 10° N visible
19 Feb 7.5 19:03:26 10° WNW 19:07:30 18° NNW 19:11:31 10° N visible
21 Feb 7.6 19:16:59 10° NW 19:19:30 13° NNW 19:21:58 10° N visible
21 Feb 8.0 22:46:22 10° N 22:46:23 10° N 22:46:23 10° N visible
22 Feb 7.7 22:01:16 10° N 22:02:00 11° N 22:02:00 11° N visible
23 Feb 7.9 22:57:03 10° NNW 22:57:18 11° NNW 22:57:18 11° NNW visible
24 Feb 7.5 22:11:44 10° N 22:12:55 13° N 22:12:55 13° N visible
